Temp
24 24 24 23 21 19 22 25 29 29 29 29 31 29 26 26 27 25 25 25 24 22 21 21 20 20 20 20 20 20 20 20 20 20 20 20 20 20 20 20 20 20 20 19 19 19 19 19 19
24 25 25 19 20 21 22 27 29 29 30 30 30 29 27 25 26 24 24 24 24 23 21 21 21 21 20 20 20 20 20 20 20 20 20 21 20 20 20 20 20 20 20 19 19 19 19 19 19
24 24 20 19 20 21 24 27 28 29 30 30 30 29 28 26 26 25 26 24 24 23 22 21 21 21 21 21 21 21 20 20 20 20 20 20 20 20 20 20 20 20 19 19 19 19 19 19 19
23 22 20 21 22 23 27 28 28 28 30 30 29 27 27 27 26 27 27 25 24 24 24 22 21 22 21 21 21 21 21 21 20 20 20 20 20 21 20 20 20 20 19 19 19 19 19 20 19
23 19 21 22 23 25 25 28 28 28 27 30 30 28 25 27 27 27 27 26 25 24 24 23 23 22 21 21 21 21 21 21 20 20 20 20 21 20 20 20 20 20 20 19 19 19 19 20 20
20 19 21 21 23 26 27 27 28 28 28 29 29 25 25 28 27 28 27 27 26 25 24 24 23 22 21 21 21 21 21 21 20 20 20 21 21 21 20 20 20 20 19 19 19 19 19 20 20
21 19 21 22 23 24 28 27 26 27 28 28 29 27 25 26 27 28 28 27 27 25 24 24 23 22 22 21 21 21 21 21 20 21 20 20 20 20 21 20 20 20 20 20 19 19 19 20 21
20 20 23 22 24 25 28 29 28 28 28 28 28 26 24 25 27 27 27 27 26 25 24 24 23 22 21 21 21 21 21 20 21 20 20 20 20 20 20 20 20 20 19 19 19 18 19 20 21
24 19 20 23 26 25 25 27 27 29 28 27 28 27 25 27 27 27 27 26 24 24 24 23 23 22 22 21 21 21 20 20 20 20 20 20 20 21 21 20 20 20 19 19 19 19 19 20 21
20 18 21 24 25 25 25 24 25 27 25 26 27 26 27 27 27 25 25 24 24 23 23 23 23 23 22 22 22 21 21 20 20 20 20 20 20 20 21 20 20 20 19 19 19 19 19 20 21
21 20 23 24 25 26 25 25 25 24 24 25 26 25 24 25 25 25 25 25 25 25 23 24 23 23 22 22 21 21 20 20 20 20 20 21 20 20 20 20 20 20 19 19 19 18 19 20 21
22 23 23 24 25 25 26 26 24 24 23 25 24 26 24 23 23 24 25 25 25 25 25 25 24 23 23 22 22 21 21 20 21 21 20 21 20 20 21 20 20 20 19 19 19 19 19 19 19
22 23 24 24 24 24 24 24 23 23 23 24 24 25 24 23 23 26 26 27 25 24 25 24 24 23 22 22 22 21 21 21 22 21 21 21 21 21 21 20 20 19 19 19 19 19 19 19 19
23 23 23 24 23 24 24 23 23 23 24 24 24 24 23 23 24 27 27 27 25 24 24 24 24 23 23 22 22 22 22 22 22 22 21 21 21 21 20 20 20 19 19 19 18 19 19 19 19
23 22 21 22 22 23 24 22 23 24 23 23 23 23 23 23 25 25 29 28 27 25 25 24 24 23 23 23 23 22 21 21 21 21 21 21 21 20 20 20 20 19 19 19 18 18 18 18 18
21 21 20 22 23 23 23 21 23 23 23 24 22 21 22 23 23 27 29 29 29 26 24 24 24 24 23 23 23 23 23 22 21 21 20 20 20 20 20 20 20 20 19 19 18 18 18 18 18
19 18 20 21 24 24 23 21 23 23 24 24 23 22 21 22 22 25 28 29 29 26 25 24 24 24 23 23 22 22 22 22 21 21 21 21 20 20 20 19 19 19 19 18 18 18 17 17 16
18 18 20 20 23 24 23 21 21 23 23 23 22 22 23 22 23 26 27 29 29 27 25 24 24 24 23 22 22 21 21 20 20 20 20 20 20 19 19 19 18 18 18 17 17 18 16 16 17
20 20 20 21 22 22 21 20 21 22 22 22 21 21 21 21 23 26 27 28 29 27 25 24 24 23 23 22 21 20 20 19 19 19 19 19 18 18 18 18 18 17 17 16 17 17 16 14 15
20 19 19 20 23 22 21 21 21 21 22 24 23 22 23 23 23 23 25 26 27 26 25 24 24 23 22 22 21 20 20 19 19 19 19 18 18 18 18 18 17 17 16 16 16 16 14 13 14
20 19 19 20 21 21 20 20 20 21 22 23 24 24 24 22 23 23 22 23 24 24 24 24 23 23 22 22 21 20 19 19 18 18 17 17 17 17 17 17 16 16 16 15 16 16 15 13 13
19 21 21 21 19 18 21 18 20 20 21 23 23 23 23 22 22 22 23 20 22 22 23 23 23 22 22 21 20 19 18 17 18 18 18 17 17 17 17 17 16 16 16 16 15 15 15 15 13
20 21 20 21 19 18 19 17 20 21 21 22 23 21 20 19 20 20 19 21 21 22 22 22 22 22 21 21 20 20 19 19 19 18 18 17 17 17 17 16 16 15 15 15 15 14 14 14 13
21 21 19 19 17 16 19 17 19 18 21 24 21 20 20 20 19 19 18 18 19 21 21 21 21 20 20 20 19 18 18 18 18 18 17 17 17 17 16 16 15 15 15 15 15 14 14 13 13
17 18 15 15 15 17 18 17 19 20 20 23 21 19 19 19 18 17 16 17 17 18 19 19 19 18 18 18 18 18 18 18 18 17 17 16 15 15 14 14 15 15 16 15 15 14 13 13 13
15 17 16 15 13 15 18 16 19 21 21 22 21 18 18 19 17 16 16 15 16 16 18 18 17 17 17 17 16 16 17 17 17 16 16 15 15 15 14 14 15 15 15 15 14 13 13 13 13
15 14 15 15 14 14 15 17 19 16 16 19 18 17 17 17 16 15 16 15 15 16 17 16 16 15 15 15 15 15 15 15 15 15 15 15 15 15 14 14 14 15 15 15 14 14 13 14 13
13 14 13 13 13 14 15 17 15 11 10 11 14 15 15 15 15 15 15 14 15 15 16 17 15 15 15 15 14 14 15 16 16 16 15 14 14 14 14 14 14 14 15 14 14 14 14 14 13
11 11 12 12 12 12 14 14 13 11 11 11 9 13 13 14 14 15 14 14 14 15 15 15 15 15 14 14 13 14 14 14 15 14 14 14 14 13 12 13 14 14 14 14 14 14 14 14 14
12 11 10 8 10 10 11 13 11 10 11 11 11 11 13 13 14 14 14 14 14 14 14 14 14 14 14 14 13 13 13 13 13 13 12 12 12 12 12 11 12 13 13 14 14 14 15 14 14
Height
783 783 782 783 810 815 817 794 766 765 762 750 743 751 766 766 772 792 765 768 772 776 780 784 786 789 791 793 795 798 799 800 801 802 804 804 805 805 805 806 806 807 807 809 808 808 808 808 809
781 781 781 789 818 827 816 777 773 763 753 745 744 753 762 777 762 765 769 770 772 775 780 784 786 789 791 793 795 797 800 800 802 802 804 804 805 806 807 808 808 808 809 809 809 809 810 809 810
781 782 791 804 816 822 809 777 769 757 747 750 753 748 758 770 763 765 766 769 772 776 780 784 787 790 791 793 795 797 799 800 802 803 804 805 806 806 807 808 809 810 810 811 811 811 811 811 811
782 782 791 808 813 797 782 768 762 762 752 748 753 767 757 757 759 762 766 768 771 775 778 782 786 788 791 794 796 797 798 800 802 803 804 806 807 807 808 808 810 811 811 812 813 813 812 812 813
784 791 808 811 803 785 773 763 759 765 765 755 751 767 767 760 759 763 766 768 770 774 778 781 783 787 790 793 795 797 798 799 802 803 803 805 808 808 809 809 811 812 812 813 814 814 814 814 814
795 797 815 818 802 779 764 756 759 761 760 758 758 766 766 760 758 762 764 767 768 773 775 779 784 785 788 791 793 796 798 799 800 803 804 804 806 808 809 810 812 812 814 814 814 815 815 815 815
794 805 813 804 798 786 766 757 766 763 760 760 750 767 765 761 760 761 763 765 768 771 775 778 781 785 787 790 792 795 797 799 801 802 803 805 805 807 809 810 811 813 815 815 815 815 816 816 817
788 798 799 799 797 791 762 756 755 759 762 749 745 767 774 761 762 764 765 766 768 771 775 777 779 783 785 788 791 793 795 798 800 802 802 805 804 806 807 809 810 813 815 815 815 816 816 817 817
780 809 813 797 786 782 768 767 757 750 757 755 750 751 749 756 762 765 765 767 768 772 774 776 778 783 785 787 789 792 793 797 799 802 802 804 805 806 806 808 810 813 814 815 815 816 816 817 818
794 813 798 777 774 776 769 772 768 766 767 763 758 753 754 757 759 762 764 766 768 772 774 776 778 781 783 786 787 789 792 796 797 799 801 803 805 805 806 808 809 812 814 815 816 816 817 818 818
789 801 782 772 767 764 767 767 764 769 773 765 764 761 751 753 756 759 761 763 765 768 772 774 777 779 781 783 787 787 790 793 795 796 798 802 804 804 806 806 808 811 813 815 815 816 817 818 818
790 781 778 772 765 766 767 762 767 765 763 755 754 755 757 753 754 756 758 759 761 763 766 770 774 778 780 782 784 786 788 791 793 795 795 799 803 803 805 806 808 809 812 814 815 815 816 818 818
782 776 769 766 765 765 762 766 766 761 751 749 749 749 752 754 752 753 755 755 756 759 762 766 769 774 778 780 782 784 785 788 791 793 793 797 801 802 804 805 808 809 811 813 814 815 817 818 819
769 770 769 764 763 762 766 765 764 753 748 749 746 745 747 751 748 749 751 753 754 755 759 763 767 771 774 778 780 782 784 787 789 791 792 796 799 800 802 804 806 809 809 812 814 816 817 819 818
768 777 774 766 762 764 757 770 763 746 748 747 744 742 740 740 742 741 743 747 749 751 755 760 764 768 772 776 779 781 784 785 788 789 792 796 798 798 800 802 804 807 808 811 813 815 816 818 818
781 779 791 764 757 754 759 778 752 745 746 743 742 742 739 735 734 735 737 739 743 746 750 756 761 766 770 774 777 780 782 784 786 789 792 794 794 798 798 799 803 805 806 808 811 813 814 817 818
786 800 787 775 751 749 754 767 747 740 742 743 738 737 736 733 730 728 731 733 737 741 745 753 758 762 766 771 775 778 780 782 784 787 790 792 793 795 797 799 800 802 805 807 808 810 812 814 817
799 794 781 781 761 753 759 763 752 741 739 739 737 734 731 728 726 722 724 726 730 735 740 746 753 759 763 767 773 776 778 781 783 785 787 789 791 793 795 797 799 800 803 805 807 809 811 813 815
782 783 783 770 758 761 765 763 755 743 738 737 734 734 731 728 719 718 719 720 724 729 735 742 749 757 760 764 769 774 776 779 781 783 785 788 790 792 793 796 797 799 801 804 807 808 810 813 815
779 783 782 768 755 761 761 753 747 740 736 726 725 725 721 719 716 714 714 718 718 722 728 738 745 752 756 761 765 771 775 778 780 782 784 785 788 790 792 794 796 798 800 803 805 806 808 811 815
771 778 775 775 762 758 765 754 749 736 729 720 714 709 709 711 710 709 710 713 714 717 723 730 739 746 754 759 765 770 774 776 779 780 782 783 785 788 790 793 795 797 799 801 803 804 806 809 814
777 762 763 765 773 784 759 776 750 745 733 720 713 707 703 706 705 705 705 708 711 714 719 726 733 742 750 756 762 766 770 773 776 777 779 781 782 785 788 791 793 795 797 799 801 803 805 807 811
763 754 760 758 770 773 765 786 741 738 736 721 709 707 710 707 705 704 704 703 710 714 720 727 734 740 745 753 760 765 769 772 773 775 778 780 781 783 786 788 791 793 796 798 799 801 803 805 808
749 755 759 760 771 787 760 780 749 751 728 714 712 711 709 706 704 705 708 709 710 717 723 729 735 742 747 753 758 763 767 770 771 773 777 779 779 781 784 787 790 792 794 795 796 799 801 803 806
768 769 792 791 790 775 754 771 746 729 720 711 712 712 709 707 707 708 712 713 718 721 726 732 737 745 749 755 758 763 766 769 770 773 775 777 779 781 783 786 788 790 792 794 795 797 799 802 805
784 777 788 793 795 781 754 767 743 721 715 708 707 711 712 711 712 715 714 717 721 725 728 734 740 746 750 754 758 762 765 767 769 772 774 776 778 779 782 785 787 788 790 792 794 796 798 801 804
784 792 790 784 785 783 770 751 736 740 738 719 716 717 719 717 717 720 721 720 724 728 732 736 742 747 752 756 759 763 765 768 769 773 775 777 778 779 781 785 787 788 790 791 793 795 798 801 802
805 798 794 791 787 775 761 754 763 774 767 763 739 734 726 724 724 721 724 727 727 732 734 739 745 749 753 757 761 765 766 769 770 773 775 776 778 779 781 783 785 786 788 791 792 794 797 799 800
809 804 800 798 798 783 769 765 773 779 772 766 761 744 744 735 727 727 731 725 729 735 736 742 747 751 755 759 763 764 766 769 771 773 776 777 778 779 780 782 783 785 787 789 791 792 793 796 798
803 805 805 820 803 799 785 766 773 775 768 760 756 757 741 743 734 729 728 729 733 734 739 744 749 753 756 759 763 764 767 770 772 774 776 777 778 778 780 780 781 783 785 787 789 790 791 794 797
Wind_Speed
2 4 11 2 4 5 4 6 4 5 6 5 2 7 8 3 3 4 10 15 22 25 25 22 20 17 16 14 12 11 9 9 10 10 8 8 7 8 9 9 11 11 12 12 13 13 13 13 12
2 5 2 1 4 3 5 4 3 5 1 5 7 7 6 3 3 5 13 23 23 25 25 22 19 17 16 14 12 11 10 9 8 8 8 7 7 7 7 7 8 10 11 12 12 12 13 13 12
2 2 3 3 2 4 3 4 3 4 5 4 2 5 5 4 4 13 18 25 25 22 25 22 18 16 15 14 11 10 9 8 7 7 7 6 7 7 8 7 9 10 11 10 10 11 12 12 15
4 6 4 3 5 8 5 2 4 5 4 5 3 6 4 1 16 16 26 28 26 24 23 24 20 16 16 13 11 9 9 8 8 7 7 7 6 7 7 8 8 10 10 9 9 10 11 14 14
2 3 1 2 7 6 5 4 4 2 4 3 2 3 5 6 23 24 25 27 26 26 21 22 21 19 17 15 12 9 8 9 6 7 6 8 4 6 7 8 9 9 9 9 8 9 9 12 12
3 2 2 3 5 6 4 8 7 4 2 4 2 6 2 17 24 22 24 27 25 27 27 23 20 20 18 16 13 10 8 9 9 7 8 8 8 5 7 8 9 9 9 8 7 7 8 10 10
4 3 3 6 6 7 3 6 6 2 4 5 4 4 2 5 18 21 21 24 28 29 28 24 22 21 19 15 14 11 9 9 9 7 8 8 9 9 7 8 8 9 9 8 7 7 6 8 9
3 3 2 4 2 7 4 2 4 4 1 7 6 4 5 5 14 14 13 16 28 28 26 21 23 23 20 17 16 13 11 8 7 9 9 8 8 9 9 9 9 9 9 9 8 6 4 6 8
2 3 3 4 3 4 7 6 7 4 2 5 6 4 9 26 20 19 18 16 27 26 22 21 22 21 18 18 15 13 12 10 9 10 10 9 9 9 8 9 9 8 9 8 8 7 3 6 8
4 3 7 5 3 3 6 6 6 5 8 5 4 6 20 21 17 13 14 15 21 24 22 20 18 17 16 18 15 14 13 14 11 11 11 10 10 8 8 10 9 8 8 9 10 7 4 6 9
5 5 5 8 5 2 3 7 6 6 5 7 4 5 14 15 19 16 17 21 23 22 22 19 19 20 18 17 16 14 14 15 13 13 12 10 9 12 12 13 11 9 9 11 11 9 6 8 9
5 8 9 11 7 5 2 2 5 4 9 6 7 5 6 7 9 14 19 25 28 27 26 22 20 21 20 20 17 15 16 15 13 13 13 12 9 10 10 10 10 9 11 11 11 10 8 8 5
7 9 9 8 9 6 6 7 7 11 11 9 11 6 7 8 9 20 25 30 33 31 31 27 21 24 22 17 15 16 15 15 13 14 12 12 13 10 9 7 7 8 8 9 9 11 10 9 4
5 6 7 6 9 6 9 7 4 8 6 10 10 11 8 10 12 13 12 21 28 31 35 30 25 24 20 18 14 17 17 14 14 12 11 9 11 10 8 7 8 7 6 8 10 9 10 7 2
6 6 8 12 9 8 4 7 11 15 6 15 12 11 10 10 16 15 19 17 18 34 37 33 29 23 22 18 16 14 17 14 13 14 16 12 7 7 7 7 7 5 5 7 10 11 9 7 7
6 4 3 11 5 8 10 10 14 8 6 7 11 10 11 12 13 27 28 24 17 27 37 34 32 28 22 21 20 20 17 15 12 12 15 14 12 12 11 9 10 9 8 8 10 11 12 11 11
3 4 7 8 8 7 6 5 11 6 6 9 8 7 9 10 9 25 34 30 24 26 36 38 35 31 26 20 22 17 14 13 13 12 12 11 11 14 12 10 11 10 9 10 9 10 13 17 12
5 5 5 6 6 5 5 7 8 9 8 9 9 9 9 9 11 16 27 31 29 25 39 40 35 33 28 24 20 18 14 12 11 14 14 13 11 13 14 12 11 10 10 9 10 9 17 17 16
8 13 14 9 6 5 5 8 10 10 7 9 9 9 10 10 10 19 18 31 28 29 37 37 36 35 31 27 24 21 20 17 14 15 13 11 9 12 12 11 14 11 9 9 10 12 18 17 17
10 9 9 9 5 9 12 20 9 8 9 14 10 10 12 10 8 11 14 28 32 32 35 39 35 33 32 30 27 20 19 18 18 16 14 10 13 9 15 14 13 13 11 10 13 16 17 12 19
10 6 9 11 4 3 7 19 12 8 9 12 15 18 14 12 11 9 8 23 32 38 43 41 37 32 29 26 21 14 17 12 15 15 14 11 11 15 13 13 12 12 11 11 11 15 18 14 18
8 7 10 5 4 7 5 10 14 9 14 16 11 9 8 5 2 3 6 10 24 31 42 41 37 32 28 24 22 21 19 18 16 14 9 11 12 14 15 14 10 10 11 11 13 15 19 18 18
9 4 10 6 5 5 3 2 12 5 8 10 10 4 5 6 6 7 3 16 20 32 36 35 31 29 27 24 19 16 12 11 9 10 9 7 9 13 15 13 14 11 11 13 15 16 20 21 20
7 5 5 3 3 6 7 6 20 5 9 3 3 5 5 6 7 7 12 19 24 27 29 29 27 22 21 20 14 12 12 11 11 14 14 10 10 13 12 10 12 12 14 13 14 15 18 21 17
14 4 2 3 2 11 6 7 15 10 9 6 7 6 5 5 6 8 9 13 20 26 27 27 26 21 18 15 13 11 12 11 13 15 15 14 14 12 10 7 10 12 10 9 12 17 18 19 18
9 4 2 6 3 4 3 6 7 9 8 3 4 7 5 6 7 7 10 12 17 23 24 23 22 19 15 14 13 11 10 10 11 13 12 9 7 8 7 9 10 12 10 9 10 14 18 17 16
7 5 15 6 6 4 4 7 23 22 20 8 7 6 5 6 7 8 8 15 19 23 23 23 21 21 19 17 14 11 11 11 11 9 9 7 7 7 7 9 11 10 9 9 11 14 16 15 14
12 11 5 4 5 6 6 6 0 15 18 21 16 11 2 4 6 8 9 13 18 22 19 14 16 16 13 11 11 12 12 10 11 10 9 8 10 10 8 8 10 11 12 10 12 14 15 15 15
7 5 4 2 5 4 4 2 4 6 11 16 18 11 8 4 6 5 7 16 18 20 21 16 16 17 16 16 16 14 16 14 13 12 9 6 5 4 6 8 8 9 11 11 11 13 13 15 14
13 12 1 2 5 5 2 2 1 5 11 15 17 20 10 8 6 5 9 15 16 18 19 17 19 19 20 19 17 16 13 9 10 9 7 5 4 5 6 8 10 9 9 11 12 11 13 13 12
Wind_Direction
306 316 316 297 63 72 269 262 229 12 24 335 44 73 116 41 42 153 164 163 155 163 160 159 155 151 147 143 142 140 144 141 131 127 125 122 118 121 120 117 115 114 106 89 87 81 77 74 70
337 340 327 56 87 88 271 246 359 83 201 30 32 84 47 20 74 117 137 159 153 158 160 158 156 154 151 147 146 146 140 137 140 136 133 120 126 123 119 117 121 118 111 99 91 86 82 78 78
354 301 75 102 161 186 231 341 24 356 49 43 59 65 98 131 129 148 152 154 152 154 161 160 159 157 153 149 147 147 156 151 142 136 132 134 132 131 130 132 134 131 116 106 95 93 88 85 85
349 11 9 95 256 266 245 261 5 4 359 52 80 67 62 189 160 152 149 155 158 155 164 164 166 160 160 159 152 147 146 153 144 143 145 129 140 140 141 138 144 137 124 112 101 96 93 96 88
248 68 4 224 244 265 264 212 122 327 313 246 129 155 104 61 127 145 154 159 161 158 161 166 171 167 171 171 160 156 153 151 155 151 149 144 150 147 155 145 150 146 130 119 110 102 101 104 99
1 85 36 235 259 276 220 187 155 167 267 286 52 114 183 144 139 150 159 162 166 166 167 170 178 175 170 176 173 168 165 163 170 171 161 158 155 165 166 160 160 150 144 132 116 105 112 109 110
138 92 233 283 277 310 310 152 133 206 268 260 190 92 176 171 152 155 164 168 168 168 168 172 176 180 177 181 184 179 176 172 182 175 166 163 162 168 182 165 161 161 161 148 136 116 108 108 111
111 114 257 264 294 282 6 44 354 62 299 301 167 128 182 218 161 151 154 137 166 167 168 169 176 179 181 182 189 189 190 185 190 190 176 181 165 175 172 174 169 167 167 157 144 137 101 117 116
46 58 230 251 13 277 355 10 344 321 30 348 322 141 158 162 167 166 176 154 151 162 165 165 174 182 189 188 194 197 193 196 199 199 191 188 185 191 182 180 179 174 173 172 162 160 131 119 123
123 158 231 183 303 306 336 30 328 19 328 311 14 60 127 147 163 164 164 145 148 160 168 165 164 180 183 191 194 198 201 203 203 201 200 196 196 186 184 183 182 186 184 180 175 175 151 125 131
210 215 251 291 283 345 328 329 328 345 286 243 262 238 164 164 175 182 179 173 169 164 162 174 180 183 183 188 198 194 204 210 211 201 193 202 207 241 218 195 190 194 194 187 182 183 164 141 140
260 237 246 279 288 293 240 244 289 250 241 264 269 253 222 174 179 192 194 195 186 184 192 192 202 194 196 195 200 207 203 205 208 203 201 196 211 194 216 197 191 196 203 195 194 194 176 188 222
236 254 257 274 296 276 259 239 237 252 274 276 282 300 202 199 208 209 211 209 195 186 189 188 188 187 189 190 196 200 198 200 203 200 199 208 210 209 209 205 200 202 194 199 203 205 192 209 245
270 292 277 285 282 278 273 264 184 254 244 264 268 269 239 216 200 222 253 233 198 192 189 186 179 184 189 188 193 195 189 189 189 189 179 185 200 201 188 166 172 188 188 212 219 220 214 220 232
284 299 312 284 261 246 233 273 239 258 258 245 231 249 255 231 234 212 236 246 210 197 191 185 189 183 185 192 198 195 174 164 177 194 203 190 172 168 154 172 170 198 213 213 218 220 213 201 180
335 313 276 272 249 251 170 250 265 253 291 296 247 243 239 245 218 225 224 228 233 191 188 187 186 185 183 191 201 183 178 177 159 150 151 158 167 177 169 184 193 211 223 222 217 222 203 183 174
248 248 254 301 307 198 156 227 252 256 282 283 268 247 250 250 250 227 222 220 220 194 185 184 183 182 181 177 180 185 193 201 197 199 205 200 187 184 198 181 179 205 211 218 217 214 193 173 142
236 251 274 266 293 321 287 261 268 272 248 247 257 270 261 261 255 241 228 217 207 187 181 181 184 180 175 169 177 177 187 185 181 198 202 208 205 209 212 200 194 202 208 208 204 205 176 170 168
253 268 273 278 291 288 246 250 257 261 270 268 256 243 245 254 251 263 253 207 194 184 180 176 173 176 177 173 178 179 182 179 177 192 196 192 190 198 210 202 196 199 210 187 196 193 178 151 155
248 267 289 293 327 327 317 297 270 269 262 267 255 247 243 245 260 259 238 207 183 177 177 172 170 174 181 184 188 191 192 203 209 214 223 223 205 197 216 202 190 195 200 193 206 205 164 159 164
256 252 276 269 265 282 308 285 283 271 263 272 264 255 244 225 242 247 221 196 170 163 169 172 173 172 178 181 184 195 188 189 194 203 199 197 213 203 199 193 200 193 210 202 209 213 198 159 178
260 232 264 279 333 279 157 290 283 278 276 282 266 265 234 120 331 266 221 171 178 165 168 171 169 172 174 174 168 164 165 166 183 178 203 229 223 202 209 205 194 199 212 223 221 215 216 206 180
262 255 260 232 253 321 184 256 289 303 278 267 279 179 92 78 59 28 56 169 170 158 160 161 160 163 168 175 187 184 188 197 199 196 192 177 193 203 201 203 192 202 213 227 217 211 212 212 182
300 331 329 269 140 259 249 173 276 244 237 218 70 124 104 80 71 70 81 94 115 142 143 146 143 153 163 174 173 183 185 190 190 187 177 164 171 171 182 198 212 206 214 220 225 220 217 211 217
13 46 338 297 179 239 175 200 236 270 265 209 177 159 125 95 81 108 103 105 101 110 125 128 131 131 142 155 163 166 174 169 161 160 158 159 157 159 168 203 201 205 212 221 228 220 216 214 205
302 279 221 276 243 284 291 230 249 234 222 195 140 148 141 119 109 109 122 108 107 113 124 127 127 129 138 148 151 161 166 152 138 149 155 165 199 203 209 201 203 196 206 220 217 208 211 208 204
326 34 303 253 236 239 241 307 313 359 353 280 132 133 162 140 134 126 113 116 112 117 120 115 127 127 130 129 131 130 140 144 132 132 144 149 158 172 180 195 206 191 207 201 194 196 203 201 205
356 310 336 338 265 232 221 233 210 358 355 346 2 344 103 116 121 125 121 118 111 123 126 140 127 128 131 140 144 145 134 136 141 157 150 143 144 152 162 187 198 203 207 212 209 206 207 209 212
332 303 318 253 250 278 270 172 30 343 8 358 1 349 337 1 108 122 128 120 119 126 128 145 150 147 148 157 144 140 131 135 139 138 136 146 175 190 182 193 191 205 214 216 222 221 215 210 213
272 285 266 195 309 286 286 252 63 329 352 0 357 353 341 307 319 82 127 125 132 124 128 145 150 152 144 141 136 128 131 131 126 137 141 156 187 206 220 215 208 205 202 209 214 219 201 208 214